This demonstration page uses our WeatherBlox Daily Observations layout. Learn more.

40.92945, -100.16068

Hourly Observations for January 24, 2020

Temp ( °F °C ) Dew Point ( °F °C ) Humidity (%) Winds ( mph kmh ) Pressure ( in mb ) Visibility ( mi km ) Precip ( " mm )
12:15 am 00:15 Cloudy 31 -0.8 27 -2.6 88 88 N 13 20 30.19 1022 10 16.0934 0 0
12:35 am 00:35 Cloudy 30 -1.1 27 -3 87 87 N 13 20 30.19 1022 10 16.0934 0 0
12:55 am 00:55 Cloudy 29 -1.5 26 -3.5 86 86 N 14 22 30.18 1022 10 16.0934 0 0
1:15 am 01:15 Cloudy 28 -2 26 -3.4 90 90 N 14 22 30.2 1023 10 16.0934 0 0
1:35 am 01:35 Cloudy 28 -2.3 25 -4 88 88 NNE 14 22 30.2 1023 10 16.0934 0 0
1:55 am 01:55 Cloudy 27 -2.9 24 -4.2 91 91 N 13 20 30.2 1023 10 16.0934 0 0
2:15 am 02:15 Cloudy 27 -2.8 24 -4.2 90 90 N 10 17 30.21 1023 10 16.0934 0 0
2:35 am 02:35 Cloudy 27 -2.8 24 -4.2 90 90 N 10 17 30.21 1023 10 16.0934 0 0
2:55 am 02:55 Cloudy 27 -2.8 24 -4.2 90 90 N 13 20 30.21 1023 10 16.0934 0 0
3:15 am 03:15 Cloudy 26 -3.1 24 -4.5 90 90 NNE 12 19 30.2 1023 10 16.0934 0 0
3:35 am 03:35 Cloudy 27 -3 24 -4.3 91 91 N 9 15 30.2 1023 10 16.0934 0 0
3:55 am 03:55 Cloudy 27 -3 24 -4.5 90 90 N 10 17 30.2 1023 10 16.0934 0 0
4:15 am 04:15 Cloudy 27 -3 24 -4.6 89 89 N 10 17 30.2 1023 10 16.0934 0 0
4:35 am 04:35 Cloudy 27 -3 23 -4.9 87 87 N 12 19 30.19 1022 10 16.0934 0 0
4:55 am 04:55 Cloudy 27 -3 24 -4.7 88 88 N 12 19 30.19 1022 10 16.0934 0 0
5:15 am 05:15 Cloudy 27 -3 23 -5 86 86 NNW 13 20 30.19 1022 10 16.0934 0 0
5:35 am 05:35 Cloudy 27 -3 24 -4.6 89 89 N 12 19 30.19 1022 10 16.0934 0 0
5:55 am 05:55 Cloudy 26 -3.3 23 -5 88 88 N 13 20 30.19 1022 10 16.0934 0 0
6:15 am 06:15 Cloudy 26 -3.2 23 -4.8 89 89 N 13 20 30.19 1022 10 16.0934 0 0
6:35 am 06:35 Cloudy 26 -3.3 23 -4.9 89 89 N 10 17 30.19 1022 10 16.0934 0 0
6:55 am 06:55 Cloudy 26 -3.2 23 -4.8 89 89 N 10 17 30.2 1023 10 16.0934 0 0
7:15 am 07:15 Cloudy 26 -3.3 23 -4.9 89 89 N 8 13 30.2 1023 10 16.0934 0 0
7:35 am 07:35 Cloudy 26 -3.3 23 -5 88 88 NNW 9 15 30.21 1023 10 16.0934 0 0
7:55 am 07:55 Cloudy 26 -3.3 23 -5 88 88 NNW 8 13 30.21 1023 10 16.0934 0 0
8:15 am 08:15 Cloudy 26 -3.5 23 -5.1 89 89 N 9 15 30.21 1023 10 16.0934 0 0
8:35 am 08:35 Cloudy 26 -3.3 23 -5 88 88 N 7 11 30.21 1023 10 16.0934 0 0
8:55 am 08:55 Cloudy 27 -3 23 -5 86 86 N 10 17 30.22 1023 10 16.0934 0 0
9:15 am 09:15 Cloudy 26 -3.1 23 -5.1 86 86 NNW 12 19 30.22 1023 10 16.0934 0 0
9:35 am 09:35 Cloudy 26 -3.2 23 -5.2 86 86 N 9 15 30.22 1023 10 16.0934 0 0
9:55 am 09:55 Cloudy 27 -2.9 23 -4.9 86 86 NW 13 20 30.23 1024 10 16.0934 0 0
10:15 am 10:15 Cloudy 27 -2.7 23 -4.9 85 85 NNW 7 11 30.22 1024 10 16.0934 0 0
10:35 am 10:35 Cloudy 28 -2.5 23 -4.8 84 84 NNW 8 13 30.22 1023 10 16.0934 0 0
10:55 am 10:55 Cloudy 28 -2.3 24 -4.5 85 85 WNW 12 19 30.22 1023 10 16.0934 0 0
11:15 am 11:15 Cloudy 28 -2.2 23 -4.8 83 83 NW 7 11 30.22 1023 10 16.0934 0 0
11:35 am 11:35 Cloudy 28 -2.1 24 -4.5 84 84 N 8 13 30.21 1023 10 16.0934 0 0
11:55 am 11:55 Cloudy 29 -1.6 24 -4.3 82 82 N 5 7 30.19 1022 10 16.0934 0 0
12:15 pm 12:15 Mostly Cloudy 29 -1.5 25 -4.1 83 83 N 6 9 30.18 1022 10 16.0934 0 0
12:35 pm 12:35 Mostly Cloudy 30 -1.3 24 -4.2 81 81 N 7 11 30.17 1022 10 16.0934 0 0
12:55 pm 12:55 Partly Cloudy 30 -1 24 -4.2 79 79 Calm 30.17 1022 10 16.0934 0 0
1:15 pm 13:15 Partly Cloudy 31 -0.6 25 -3.9 79 79 NNE 3 6 30.15 1021 10 16.0934 0 0
1:35 pm 13:35 Partly Cloudy 31 -0.3 26 -3.6 79 79 W 3 6 30.14 1021 10 16.0934 0 0
1:55 pm 13:55 Mostly Cloudy 32 -0.2 25 -3.7 78 78 Calm 30.14 1021 10 16.0934 0 0
2:15 pm 14:15 Mostly Cloudy 32 0.1 26 -3.3 78 78 Calm 30.13 1020 10 16.0934 0 0
2:35 pm 14:35 Partly Cloudy 34 0.9 26 -3.2 74 74 NW 6 9 30.11 1020 10 16.0934 0 0
2:55 pm 14:55 Sunny 34 1.1 27 -3 74 74 Calm 30.1 1019 10 16.0934 0 0
3:15 pm 15:15 Sunny 35 1.6 27 -2.9 72 72 Calm 30.09 1019 10 16.0934 0 0
3:35 pm 15:35 Sunny 35 1.7 26 -3.2 70 70 NW 3 6 30.08 1019 10 16.0934 0 0
3:55 pm 15:55 Sunny 36 2 27 -2.7 71 71 Calm 30.08 1019 10 16.0934 0 0
4:15 pm 16:15 Sunny 36 2 27 -2.9 70 70 ENE 3 6 30.08 1019 10 16.0934 0 0
4:35 pm 16:35 Sunny 36 2 27 -2.7 71 71 Calm 30.07 1018 10 16.0934 0 0
4:55 pm 16:55 Sunny 35 1.6 27 -2.8 73 73 Calm 30.07 1018 10 16.0934 0 0
5:15 pm 17:15 Sunny 35 1.4 26 -3.4 71 71 Calm 30.08 1019 10 16.0934 0 0
5:35 pm 17:35 Sunny 32 -0.1 28 -2.4 85 85 ESE 6 9 30.1 1019 10 16.0934 0 0
5:55 pm 17:55 Clear 31 -0.7 27 -2.6 87 87 SE 6 9 30.11 1020 10 16.0934 0 0
6:15 pm 18:15 Clear 29 -1.4 27 -2.7 91 91 ESE 6 9 30.12 1020 10 16.0934 0 0
6:35 pm 18:35 Clear 29 -1.6 27 -3 90 90 SE 5 7 30.13 1020 10 16.0934 0 0
6:55 pm 18:55 Clear 28 -2 26 -3.1 92 92 SE 5 7 30.14 1021 10 16.0934 0 0
7:15 pm 19:15 Clear 28 -2.1 26 -3.3 92 92 ESE 5 7 30.14 1021 10 16.0934 0 0
7:35 pm 19:35 Clear 28 -2.1 26 -3.3 92 92 ESE 5 7 30.13 1020 10 16.0934 0 0
7:55 pm 19:55 Clear 28 -2.3 26 -3.5 92 92 ESE 5 7 30.13 1020 10 16.0934 0 0
8:15 pm 20:15 Clear 27 -2.8 26 -3.6 94 94 SE 6 9 30.15 1021 10 16.0934 0 0
8:35 pm 20:35 Clear 26 -3.2 25 -3.9 95 95 SSE 5 7 30.14 1021 10 16.0934 0 0
8:55 pm 20:55 Clear 26 -3.3 25 -4 95 95 SE 5 7 30.14 1021 10 16.0934 0 0
9:15 pm 21:15 Clear 26 -3.6 25 -4.1 96 96 Calm 30.15 1021 10 16.0934 0 0
9:35 pm 21:35 Clear 25 -3.8 24 -4.2 97 97 SE 5 7 30.16 1021 10 16.0934 0 0
9:55 pm 21:55 Clear 25 -4 24 -4.5 96 96 SE 5 7 30.16 1021 7 11.26538 0 0
10:15 pm 22:15 Clear 24 -4.2 24 -4.5 98 98 SE 3 6 30.16 1021 7 11.26538 0 0
10:35 pm 22:35 Clear 24 -4.4 24 -4.7 98 98 SSE 3 6 30.16 1021 7 11.26538 0 0
10:55 pm 22:55 Clear 24 -4.3 24 -4.7 97 97 Calm 30.16 1021 7 11.26538 0 0
11:15 pm 23:15 Clear 24 -4.4 24 -4.7 98 98 Calm 30.17 1022 7 11.26538 0 0
11:35 pm 23:35 Clear 24 -4.6 23 -5 97 97 S 3 6 30.17 1022 7 11.26538 0 0
11:55 pm 23:55 Clear 24 -4.6 23 -5 97 97 SSE 3 6 30.17 1022 7 11.26538 0 0

Powered by AerisWeather